LXGAA ELLX-ELLX

Flight info

Callsign LXGAA
Flight time 0h 2m
Altitude 2000
Route VFR CIRCUITS
Aircraft DA40/L-V/N

Departure

Time 2026-04-29 19:50
Airport Luxembourg-Findel International Airport (ELLX)

Arrival

Time 2026-04-29 19:52
Airport Luxembourg-Findel International Airport (ELLX)
Time Latitude Longitude Altitude Speed Heading
2026-04-29 19:37 49.62490 6.19893 1190 ft 0 kts 319°
2026-04-29 19:46 49.62468 6.19927 1191 ft 13 kts 145°
2026-04-29 19:46 49.62407 6.20038 1193 ft 14 kts 63°
2026-04-29 19:46 49.62457 6.20172 1193 ft 15 kts 62°
2026-04-29 19:47 49.62513 6.20308 1192 ft 15 kts 53°
2026-04-29 19:47 49.62566 6.20439 1193 ft 12 kts 104°
2026-04-29 19:47 49.62546 6.20472 1194 ft 0 kts 144°
2026-04-29 19:49 49.62538 6.20479 1195 ft 5 kts 150°
2026-04-29 19:49 49.62486 6.20527 1203 ft 10 kts 153°
2026-04-29 19:49 49.62448 6.20625 1207 ft 14 kts 67°
2026-04-29 19:50 49.62621 6.21086 1284 ft 77 kts 60°
2026-04-29 19:50 49.62897 6.21796 1772 ft 72 kts 59°
2026-04-29 19:50 49.62816 6.22476 2147 ft 90 kts 138°
2026-04-29 19:50 49.62079 6.22507 2027 ft 140 kts 215°
2026-04-29 19:51 49.61590 6.21183 1846 ft 141 kts 244°
2026-04-29 19:51 49.61231 6.19917 1867 ft 119 kts 245°
2026-04-29 19:51 49.60951 6.18823 1752 ft 101 kts 256°
2026-04-29 19:51 49.61020 6.18003 1603 ft 69 kts 325°
2026-04-29 19:52 49.61430 6.17884 1450 ft 58 kts 49°
2026-04-29 19:52 49.61628 6.18412 1332 ft 61 kts 62°
2026-04-29 19:52 49.61850 6.19012 1226 ft 64 kts 61°
2026-04-29 19:52 49.62027 6.19486 1199 ft 41 kts 58°
2026-04-29 19:53 49.62230 6.20017 1355 ft 72 kts 60°
2026-04-29 19:53 49.62325 6.20707 1860 ft 74 kts 126°
2026-04-29 19:53 49.61728 6.21177 1912 ft 107 kts 153°
2026-04-29 19:53 49.61043 6.21053 1976 ft 108 kts 221°
2026-04-29 19:54 49.60430 6.18786 2006 ft 117 kts 245°
2026-04-29 19:54 49.59916 6.17934 2009 ft 109 kts 175°
2026-04-29 19:54 49.59478 6.18410 1997 ft 75 kts 79°
2026-04-29 19:55 49.59960 6.18520 1873 ft 109 kts 333°
2026-04-29 19:55 49.59913 6.17473 1796 ft 108 kts 213°
2026-04-29 19:55 49.59352 6.17632 2021 ft 74 kts 102°
2026-04-29 19:55 49.59644 6.18133 2137 ft 98 kts 357°
2026-04-29 19:56 49.59661 6.17027 2004 ft 131 kts 211°
2026-04-29 19:56 49.58992 6.17207 1861 ft 95 kts 94°
2026-04-29 19:56 49.59501 6.17621 1734 ft 105 kts 341°
2026-04-29 19:56 49.59700 6.16609 1789 ft 111 kts 233°
2026-04-29 19:57 49.59032 6.16548 1786 ft 109 kts 114°
2026-04-29 19:57 49.59146 6.17185 1834 ft 106 kts 19°
2026-04-29 19:57 49.59308 6.15892 1906 ft 130 kts 206°
2026-04-29 19:57 49.58506 6.15826 2054 ft 106 kts 140°
2026-04-29 19:58 49.58616 6.16643 1992 ft 105 kts 39°
2026-04-29 19:58 49.59352 6.16722 1923 ft 120 kts 348°
2026-04-29 19:58 49.60057 6.16353 1672 ft 101 kts 355°
2026-04-29 19:58 49.60763 6.16355 1641 ft 96 kts 25°
2026-04-29 19:59 49.61160 6.17135 1530 ft 100 kts 59°
2026-04-29 19:59 49.61507 6.18066 1375 ft 98 kts 60°
2026-04-29 19:59 49.61837 6.18965 1239 ft 95 kts 62°
2026-04-29 19:59 49.62108 6.19708 1211 ft 62 kts 62°
2026-04-29 20:00 49.62268 6.20144 1206 ft 42 kts 59°
2026-04-29 20:00 49.62530 6.20844 1243 ft 97 kts 61°
2026-04-29 20:00 49.62880 6.21795 1534 ft 90 kts 63°
2026-04-29 20:00 49.62646 6.22430 1998 ft 101 kts 139°
2026-04-29 20:01 49.61823 6.22444 1865 ft 136 kts 207°
2026-04-29 20:01 49.61353 6.21234 1891 ft 133 kts 245°
2026-04-29 20:01 49.61006 6.19951 1815 ft 124 kts 245°
2026-04-29 20:01 49.60776 6.18810 1876 ft 105 kts 269°
2026-04-29 20:02 49.61149 6.18082 1604 ft 88 kts 352°
2026-04-29 20:02 49.61628 6.18442 1319 ft 83 kts 62°
2026-04-29 20:02 49.61913 6.19188 1209 ft 73 kts 62°
2026-04-29 20:02 49.62059 6.19581 1203 ft 55 kts 62°
2026-04-29 20:03 49.62342 6.20342 1256 ft 88 kts 60°
2026-04-29 20:03 49.62636 6.21182 1704 ft 69 kts 87°
2026-04-29 20:03 49.62148 6.21732 1882 ft 114 kts 156°
2026-04-29 20:03 49.61538 6.20930 1921 ft 138 kts 243°
2026-04-29 20:04 49.61228 6.19657 1813 ft 112 kts 251°
2026-04-29 20:04 49.61038 6.18590 1653 ft 102 kts 276°
2026-04-29 20:04 49.61447 6.18126 1402 ft 70 kts 27°
2026-04-29 20:04 49.61732 6.18701 1244 ft 68 kts 61°
2026-04-29 20:05 49.61929 6.19231 1199 ft 47 kts 59°
2026-04-29 20:05 49.62118 6.19739 1210 ft 82 kts 61°
2026-04-29 20:05 49.62348 6.20626 1550 ft 82 kts 126°
2026-04-29 20:05 49.61718 6.20943 1856 ft 106 kts 156°
2026-04-29 20:06 49.61130 6.20218 1877 ft 140 kts 249°
2026-04-29 20:06 49.60819 6.18906 1859 ft 126 kts 249°
2026-04-29 20:06 49.60759 6.17732 1814 ft 93 kts 308°
2026-04-29 20:06 49.61023 6.16954 1895 ft 102 kts 243°
2026-04-29 20:07 49.60362 6.16554 1855 ft 110 kts 158°
2026-04-29 20:07 49.59697 6.17146 1846 ft 113 kts 137°
2026-04-29 20:07 49.59390 6.18011 1752 ft 98 kts 65°
2026-04-29 20:07 49.59998 6.18069 1693 ft 111 kts 304°
2026-04-29 20:08 49.59644 6.17168 1690 ft 112 kts 173°
2026-04-29 20:08 49.59272 6.17583 1651 ft 97 kts 105°
2026-04-29 20:08 49.59737 6.18409 1786 ft 104 kts 346°
2026-04-29 20:08 49.59904 6.17354 1819 ft 116 kts 223°
2026-04-29 20:09 49.59300 6.17542 1700 ft 101 kts 102°
2026-04-29 20:09 49.59723 6.18204 1591 ft 105 kts 360°
2026-04-29 20:09 49.60149 6.17375 1546 ft 107 kts 308°
2026-04-29 20:09 49.60704 6.16701 1564 ft 95 kts 355°
2026-04-29 20:10 49.61158 6.17079 1441 ft 82 kts 67°
2026-04-29 20:10 49.61386 6.17767 1365 ft 63 kts 63°
2026-04-29 20:10 49.61602 6.18358 1314 ft 59 kts 62°
2026-04-29 20:10 49.61789 6.18841 1245 ft 54 kts 62°
2026-04-29 20:11 49.61991 6.19390 1205 ft 53 kts 62°
2026-04-29 20:11 49.62140 6.19800 1204 ft 58 kts 59°
2026-04-29 20:11 49.62436 6.20590 1303 ft 98 kts 60°
2026-04-29 20:11 49.62783 6.21553 1436 ft 106 kts 62°
2026-04-29 20:12 49.62749 6.22457 1753 ft 105 kts 149°
2026-04-29 20:12 49.62001 6.22704 1849 ft 116 kts 187°
2026-04-29 20:12 49.61519 6.21583 1838 ft 135 kts 247°
2026-04-29 20:12 49.61200 6.20249 1782 ft 126 kts 250°
2026-04-29 20:13 49.61010 6.19435 1829 ft 119 kts 248°